Location: *
(51.0333°S, 178.4667°E)
Time: 02:17:25
(UTC+00:00)

CZ-4 R/B - Pass Details

Date: 29 February 2020
Orbit: 531 x 599 km, 97.8° (Epoch: 06 April)

Event Time Altitude Azimuth Distance (km) Brightness Sun altitude
Rises 16:55:57 0° 62° (ENE) 2,722 5.5 -6.7°
Reaches altitude 10° 16:58:42 10° 83° (E) 1,849 5.2 -6.3°
Maximum altitude 17:01:10 16° 122° (ESE) 1,513 5.0 -5.9°
Drops below altitude 10° 17:03:41 10° 160° (SSE) 1,887 4.7 -5.6°
Sets 17:06:32 0° 181° (S) 2,808 5.2 -5.2°
